Temperature
13 13 13 13 13 12 12 12 12 11 11 11 11 11 11 10 10 10 10 10 10 10 10 9 9 9 9 9 9 9 9 9 9 9 9 9 9 9 9 9 9 9 9
13 13 13 12 12 12 12 12 11 11 11 11 11 11 10 10 10 10 10 9 9 9 9 9 9 9 9 9 9 9 9 9 9 8 9 9 9 9 9 9 9 9 9
13 13 12 12 12 12 11 11 11 11 11 11 11 10 10 10 10 9 9 9 9 9 9 9 9 9 9 9 9 9 9 9 8 8 8 8 8 8 8 9 9 9 9
12 12 12 12 12 11 11 11 11 11 11 10 10 10 10 10 9 9 9 9 9 9 8 8 8 8 8 8 8 8 8 8 8 8 8 8 8 8 8 8 9 9 9
12 12 12 12 11 11 11 11 10 10 10 10 10 10 9 9 9 9 9 9 8 8 8 8 8 8 8 8 8 8 8 8 8 8 8 8 8 8 8 8 8 8 8
12 11 11 11 11 11 10 10 10 10 10 9 9 9 9 9 9 8 8 8 8 8 8 8 8 8 8 8 8 8 8 8 8 8 8 8 8 8 8 8 8 8 8
11 11 11 10 10 10 10 10 10 9 9 9 9 9 8 8 8 8 8 8 8 8 7 7 8 8 8 8 8 8 8 7 7 7 7 8 8 8 7 7 8 7 8
11 10 10 10 10 10 9 9 9 9 9 9 8 8 8 8 8 8 8 7 7 7 7 7 7 7 7 7 7 7 7 7 7 7 7 7 7 7 7 7 7 7 7
10 10 10 10 10 9 9 9 9 9 9 8 8 8 8 8 8 7 7 7 7 7 7 7 7 7 7 7 7 7 7 7 7 7 7 7 7 7 7 7 7 7 7
10 10 10 9 9 9 9 9 8 8 8 8 8 8 8 7 7 7 7 7 7 7 7 7 7 7 7 7 7 7 7 7 7 7 7 7 7 7 7 7 7 7 7
10 9 9 9 9 9 8 8 8 8 8 8 7 7 7 7 7 7 7 6 6 6 6 6 6 6 6 6 6 6 6 7 7 7 6 6 6 6 6 6 6 6 6
9 9 9 9 8 8 8 8 8 8 7 7 7 7 7 7 7 6 6 6 6 6 6 6 6 6 6 6 6 6 6 6 6 6 6 6 6 6 6 6 6 6 6
8 8 8 8 8 8 8 7 7 7 7 7 7 6 6 6 6 6 6 6 5 5 5 5 5 5 5 5 5 5 5 5 6 6 6 6 6 6 6 6 6 6 6
8 8 8 7 7 7 7 7 7 7 7 6 6 6 6 6 6 6 5 5 5 5 5 5 5 5 5 5 5 5 5 5 5 5 5 5 5 5 5 5 5 5 6
7 7 7 7 7 7 7 7 7 7 6 6 6 6 5 5 5 5 5 5 5 5 5 5 5 5 5 5 5 4 4 4 5 5 5 5 5 5 5 5 5 5 5
7 7 7 6 6 6 6 6 6 6 6 5 5 5 5 5 5 5 5 4 4 4 4 4 4 4 4 4 4 4 4 4 4 4 4 4 4 4 4 4 4 4 4
6 6 6 6 6 6 6 6 6 6 5 5 5 5 5 5 4 4 4 4 4 4 4 4 4 4 4 4 4 4 4 4 4 4 4 4 4 4 4 4 4 4 4
6 6 6 6 6 5 5 5 5 5 5 5 5 5 5 4 4 4 4 4 4 4 4 4 4 3 3 3 3 3 3 3 3 4 3 3 4 4 4 4 3 3 3
6 6 6 5 5 5 5 5 5 4 4 4 5 4 4 4 4 4 3 3 3 3 3 3 3 3 3 3 3 3 3 3 3 3 3 3 3 3 3 3 3 3 3
5 5 5 5 5 5 5 4 4 4 4 4 4 4 4 4 3 3 3 3 3 3 3 3 3 3 3 3 3 3 3 3 3 3 3 3 3 3 3 3 2 2 2
5 5 5 5 4 4 4 4 4 4 4 4 3 3 3 3 3 3 3 3 3 3 3 3 3 3 3 3 3 3 2 2 3 3 3 2 2 2 2 2 2 2 2
5 5 4 4 4 4 4 4 3 3 3 3 3 3 3 3 3 3 3 3 3 3 2 2 2 2 2 2 2 2 2 2 2 2 2 2 2 2 2 2 1 1 1
4 4 4 4 4 4 3 3 3 3 3 3 3 3 3 3 3 3 3 3 2 2 2 2 2 2 2 2 2 2 2 2 2 2 2 2 1 1 1 1 1 1 1
4 4 4 4 3 3 3 3 3 3 2 2 2 2 2 2 2 2 2 2 2 2 2 2 2 2 2 2 2 1 1 1 1 1 1 1 1 1 1 1 1 1 1
3 3 3 3 3 3 3 2 2 2 2 2 2 2 2 2 2 2 2 2 2 2 1 1 1 1 1 1 1 1 1 1 1 1 1 1 1 1 1 0 0 0 0
3 3 3 3 3 2 2 2 2 2 2 2 2 1 1 1 1 1 1 1 1 1 1 1 1 1 1 1 1 1 1 1 1 1 0 0 0 0 0 0 -0 -0 -0
Wind_Speed
4 3 3 2 2 2 2 1 1 1 1 1 0 0 0 1 1 1 1 1 0 1 1 1 2 1 1 1 0 0 1 2 2 2 1 2 1 2 3 4 4 4 4
4 4 3 3 3 2 1 1 1 1 0 1 1 0 0 0 0 0 1 1 0 1 2 1 2 1 1 1 0 1 1 2 2 2 2 1 1 2 2 2 3 3 3
4 4 3 3 3 2 2 1 1 1 1 1 1 1 0 0 1 1 1 1 0 1 1 1 2 1 1 2 1 1 1 1 1 1 2 1 1 2 2 2 2 2 3
4 4 4 3 3 3 2 1 1 1 1 1 0 0 0 0 0 0 0 1 1 1 1 1 1 1 2 2 1 1 1 0 0 0 1 1 1 2 1 1 2 2 2
4 4 4 3 3 2 2 1 1 1 1 1 1 1 1 1 0 0 1 1 1 1 2 2 2 2 3 2 2 1 0 1 0 0 1 1 1 1 1 1 2 3 2
4 4 3 2 2 2 2 2 1 1 2 2 2 2 2 2 3 3 1 1 1 1 2 3 3 3 4 4 4 2 1 1 1 1 2 2 3 2 1 1 1 1 2
3 3 3 3 3 2 2 2 2 2 2 2 1 1 1 2 3 3 3 2 1 0 1 2 3 3 4 2 3 3 2 2 2 2 2 3 3 3 2 2 2 2 3
3 2 3 3 3 3 2 2 2 2 2 1 1 0 1 2 3 3 3 2 1 1 1 1 2 3 3 3 2 2 2 3 3 2 3 4 3 3 3 3 3 2 2
2 2 3 3 3 3 3 3 2 2 2 1 1 1 0 2 3 2 3 1 1 1 2 2 2 2 5 4 1 2 3 4 4 4 4 4 4 3 1 0 1 1 2
3 2 2 3 4 4 3 2 2 2 2 1 1 0 0 1 2 2 2 1 0 1 2 3 4 4 5 4 1 1 2 4 4 3 3 4 3 3 2 1 2 2 1
2 2 2 3 3 3 3 2 2 2 2 1 1 1 1 1 2 2 2 0 1 1 1 2 3 5 5 4 3 1 3 3 2 1 2 2 3 3 3 2 2 2 2
2 2 1 2 2 2 3 2 2 2 2 1 0 1 1 2 2 2 2 2 2 0 1 2 2 4 4 4 3 4 4 3 2 2 2 2 3 3 3 4 3 3 3
3 2 1 1 1 2 3 3 2 2 2 2 1 1 2 2 2 3 2 2 3 1 2 3 3 3 3 3 4 5 4 2 2 2 2 2 2 3 3 3 3 3 3
3 2 1 1 1 1 1 2 3 3 3 3 3 3 2 2 2 1 1 1 2 2 2 2 3 3 3 4 4 3 2 1 1 1 1 2 2 2 2 2 2 3 2
3 2 1 1 1 1 1 2 3 4 5 4 4 4 3 3 4 3 1 1 1 1 1 1 2 2 2 2 2 2 2 2 2 1 1 2 2 2 2 2 2 2 1
2 2 1 1 1 1 1 1 2 2 3 3 3 3 3 4 3 2 3 2 1 1 2 0 1 1 1 2 2 2 2 2 2 2 2 2 2 2 2 2 1 1 2
3 3 2 2 1 1 2 2 2 3 2 2 3 3 3 3 2 2 2 2 1 2 1 1 1 2 2 2 2 2 3 3 2 2 2 2 2 2 2 2 2 2 2
3 3 3 2 2 2 2 2 2 2 2 3 3 3 3 3 2 2 1 1 0 0 1 2 3 3 3 3 3 3 3 2 2 2 3 3 2 2 3 2 2 3 3
2 2 2 2 2 2 2 2 2 2 2 2 2 2 3 2 2 1 1 1 2 2 2 3 3 3 3 3 3 3 3 3 3 3 3 3 3 3 3 3 3 4 3
2 2 2 2 2 1 2 2 2 2 2 2 2 3 1 0 1 1 2 2 2 3 3 3 3 3 3 3 3 3 3 3 3 3 3 3 3 3 4 4 3 3 3
1 1 1 1 1 2 2 2 2 2 2 3 3 3 3 2 3 3 3 3 3 4 4 4 4 3 3 3 3 3 3 3 3 4 4 4 3 4 4 4 4 4 3
2 1 1 1 1 1 2 2 2 2 3 3 3 3 4 2 3 3 3 4 4 4 4 3 3 3 3 3 3 3 4 4 4 4 4 4 4 4 4 4 4 3 3
2 1 1 1 1 1 1 1 1 2 2 3 2 2 2 3 3 3 4 4 4 4 4 4 4 4 4 4 5 4 5 5 5 5 5 5 4 4 4 4 5 4 4
2 2 2 1 1 1 2 2 2 2 2 3 2 2 3 3 4 4 4 4 4 4 4 5 5 6 7 6 6 6 7 7 7 6 6 6 5 5 5 5 5 5 5
2 2 2 2 2 2 2 2 2 3 3 3 3 3 3 4 4 4 4 4 4 5 5 6 6 7 8 8 8 8 9 9 9 7 6 5 5 6 6 5 5 5 5
2 2 2 2 2 2 2 3 3 3 3 4 4 4 4 4 4 5 4 4 4 5 5 6 7 8 8 8 9 10 10 9 9 8 6 4 5 5 5 5 6 6 5
Wind_Direction
164 163 153 156 151 143 147 184 186 171 162 156 164 132 338 13 19 61 9 9 27 322 337 331 307 311 314 319 321 186 184 167 212 279 280 301 302 320 334 335 331 330 333
170 159 155 152 141 134 143 181 165 151 147 167 163 138 210 209 260 165 274 323 272 292 304 309 300 325 317 308 272 245 238 205 191 252 284 309 306 314 315 313 324 329 324
160 153 149 150 147 150 163 183 150 128 87 74 102 139 199 244 229 230 223 271 277 300 298 295 300 333 310 301 286 267 254 252 208 212 275 304 321 330 331 318 328 329 322
149 152 159 171 170 169 168 168 170 146 127 108 90 149 202 264 247 234 107 69 27 355 327 312 310 286 279 283 288 267 245 213 174 227 297 305 299 309 332 323 330 324 317
151 161 180 176 159 150 146 151 132 99 88 81 67 40 25 23 345 134 145 101 67 5 346 327 312 308 308 310 312 282 216 163 159 283 286 296 293 318 301 285 307 317 311
162 177 177 152 142 150 150 140 116 95 82 76 71 61 36 7 6 26 72 110 87 15 329 320 312 319 326 331 322 316 292 188 214 229 253 266 272 263 253 270 279 328 310
162 172 170 163 159 170 154 133 139 136 105 86 66 65 35 346 9 28 40 90 84 352 303 315 326 332 337 336 341 346 320 299 268 237 249 257 251 247 230 244 238 245 259
150 168 173 168 170 165 154 155 159 142 129 125 112 81 30 351 11 29 44 53 46 342 307 302 306 319 327 343 0 357 334 313 289 271 247 251 255 242 226 226 224 244 280
164 184 188 176 172 165 172 180 173 150 144 146 156 136 69 340 359 23 46 77 41 328 315 330 325 309 321 343 11 342 332 325 329 319 309 301 297 295 276 107 161 186 278
201 200 191 176 172 176 186 185 172 154 154 142 104 118 193 296 334 4 35 91 21 318 324 324 331 333 337 348 357 324 313 311 329 343 350 347 347 337 322 265 206 211 237
195 161 155 171 176 179 170 164 155 145 124 108 90 6 309 302 312 331 4 52 222 261 304 320 316 330 339 342 347 327 299 316 332 347 348 358 7 2 349 329 291 232 228
136 134 140 162 184 166 154 156 153 149 143 144 141 345 322 310 317 298 309 324 331 227 271 284 302 331 347 352 351 349 358 15 35 34 23 2 350 339 331 328 317 288 258
125 127 119 120 151 157 158 169 170 171 176 198 205 244 288 300 302 307 293 307 322 314 285 308 328 349 2 356 349 1 15 29 38 25 348 323 313 307 326 341 344 341 331
141 146 133 123 101 122 164 178 183 190 197 208 220 235 258 272 273 271 264 277 314 323 329 339 357 4 13 358 355 354 360 358 11 318 305 307 323 332 338 343 342 342 344
153 155 139 149 159 180 211 220 214 215 210 210 218 217 222 244 260 266 237 236 255 253 48 25 22 14 3 352 345 341 344 349 334 322 311 317 322 327 327 337 348 357 340
153 160 166 192 192 184 201 317 313 271 256 238 237 239 250 263 273 252 253 267 285 101 91 52 321 309 301 302 308 311 314 307 299 293 284 281 290 292 303 323 330 327 307
170 186 191 196 201 211 220 219 278 321 316 272 260 256 259 267 260 252 255 251 230 125 117 237 263 268 270 275 277 278 284 287 283 281 278 276 283 289 292 293 294 291 285
178 193 194 200 210 220 225 227 226 230 273 292 284 271 264 262 249 238 234 82 26 293 257 253 260 266 270 268 271 277 283 291 290 282 280 276 272 276 284 280 276 277 274
183 202 206 203 208 223 226 221 220 226 238 266 292 293 278 268 260 245 147 178 225 244 255 261 265 267 269 269 272 270 269 273 278 276 274 276 270 269 273 273 273 281 279
197 218 202 190 194 217 231 227 227 230 238 251 261 265 273 251 240 242 225 226 234 247 250 254 261 264 262 261 267 275 279 275 273 268 268 268 267 264 262 265 267 271 267
193 215 209 193 210 224 227 232 235 236 243 254 260 256 239 220 230 234 233 233 237 245 252 255 258 262 260 261 261 265 271 279 275 269 269 267 266 266 264 260 260 261 265
173 182 189 207 226 237 246 239 238 242 248 256 271 273 254 239 239 245 241 242 245 245 248 252 256 257 254 248 248 257 265 270 274 276 273 268 266 268 269 263 261 261 263
167 172 193 219 220 247 273 273 260 254 256 260 267 272 265 250 246 247 251 253 251 248 248 247 256 268 271 265 256 250 253 260 263 264 265 269 266 262 262 260 257 258 258
176 187 196 216 226 227 239 255 261 260 259 260 266 268 267 266 264 262 262 266 261 257 257 254 255 260 265 269 269 265 264 267 268 262 256 256 261 263 258 258 256 253 251
182 191 198 211 223 236 248 256 259 260 265 267 265 270 273 270 270 269 270 266 264 261 261 261 262 262 262 263 266 269 271 272 274 272 262 257 256 255 252 253 254 253 250
191 198 208 217 226 233 242 253 258 261 263 267 268 266 268 270 269 271 272 266 266 266 267 265 263 263 266 266 266 269 272 274 275 275 268 262 258 256 254 250 251 248 248
Height
1524 1525 1526 1527 1528 1528 1528 1528 1528 1527 1527 1527 1526 1525 1524 1524 1523 1523 1522 1522 1521 1521 1520 1519 1519 1518 1518 1517 1516 1516 1515 1514 1512 1512 1512 1511 1510 1509 1508 1508 1507 1507 1506
1522 1523 1524 1525 1526 1526 1526 1526 1526 1526 1525 1525 1524 1524 1523 1522 1522 1521 1521 1520 1520 1519 1518 1518 1517 1517 1516 1515 1515 1514 1513 1513 1512 1510 1510 1509 1508 1508 1507 1507 1506 1505 1504
1519 1520 1522 1523 1523 1524 1524 1524 1524 1524 1523 1523 1522 1522 1521 1520 1520 1519 1519 1518 1518 1517 1516 1516 1515 1515 1514 1513 1513 1512 1512 1511 1510 1509 1508 1508 1507 1507 1506 1505 1505 1504 1503
1517 1518 1519 1520 1521 1521 1522 1522 1522 1522 1521 1521 1520 1520 1519 1519 1518 1517 1517 1516 1516 1515 1515 1514 1514 1513 1512 1511 1511 1510 1509 1509 1508 1507 1506 1506 1506 1505 1504 1503 1502 1502 1502
1514 1515 1516 1517 1518 1519 1519 1520 1520 1519 1519 1519 1518 1518 1517 1517 1516 1515 1515 1514 1514 1513 1513 1512 1512 1511 1510 1510 1509 1508 1507 1507 1506 1506 1505 1504 1504 1503 1503 1502 1501 1501 1500
1511 1512 1514 1515 1515 1516 1516 1517 1517 1517 1517 1517 1516 1516 1515 1515 1514 1514 1513 1512 1512 1511 1511 1510 1510 1509 1508 1508 1507 1507 1506 1506 1505 1504 1503 1502 1502 1502 1501 1501 1500 1499 1498
1509 1510 1512 1512 1513 1514 1514 1514 1514 1515 1515 1515 1514 1514 1514 1513 1513 1512 1511 1511 1510 1509 1509 1508 1508 1507 1506 1506 1505 1504 1504 1504 1504 1503 1501 1501 1500 1500 1500 1499 1498 1498 1497
1506 1508 1509 1510 1510 1511 1512 1512 1512 1513 1513 1513 1513 1512 1512 1511 1511 1510 1510 1509 1508 1508 1507 1507 1506 1505 1505 1504 1503 1503 1502 1501 1501 1500 1500 1499 1499 1498 1498 1497 1497 1496 1495
1504 1505 1506 1507 1508 1508 1509 1509 1510 1510 1510 1510 1510 1510 1509 1509 1509 1508 1508 1507 1506 1506 1505 1505 1504 1504 1503 1503 1502 1500 1500 1499 1499 1498 1498 1497 1497 1496 1496 1495 1494 1493 1492
1501 1502 1503 1504 1505 1506 1506 1507 1507 1508 1508 1508 1508 1508 1507 1507 1507 1506 1506 1505 1504 1503 1503 1502 1502 1501 1501 1500 1499 1498 1497 1496 1496 1496 1495 1495 1495 1494 1494 1493 1492 1491 1490
1499 1500 1501 1502 1503 1503 1504 1505 1505 1505 1506 1506 1505 1506 1505 1505 1505 1504 1504 1503 1502 1501 1501 1500 1499 1499 1499 1498 1497 1496 1496 1495 1494 1493 1493 1492 1492 1492 1491 1490 1490 1489 1488
1497 1498 1499 1500 1500 1501 1501 1502 1503 1503 1503 1503 1503 1503 1503 1503 1502 1502 1501 1501 1500 1500 1499 1498 1497 1497 1496 1496 1495 1494 1494 1493 1492 1491 1491 1490 1490 1489 1488 1488 1487 1486 1486
1495 1496 1497 1498 1498 1498 1499 1499 1500 1500 1500 1500 1500 1500 1500 1500 1500 1499 1499 1498 1498 1497 1497 1496 1495 1495 1494 1493 1492 1492 1491 1490 1490 1489 1489 1488 1488 1487 1486 1485 1485 1484 1483
1493 1494 1495 1495 1495 1496 1496 1497 1497 1497 1497 1497 1497 1497 1497 1497 1497 1496 1496 1495 1495 1495 1494 1493 1493 1492 1492 1491 1490 1489 1489 1488 1488 1487 1487 1486 1486 1485 1484 1483 1482 1481 1480
1491 1492 1493 1493 1493 1493 1494 1494 1494 1494 1495 1495 1494 1494 1494 1494 1494 1494 1493 1493 1493 1492 1492 1491 1490 1489 1488 1488 1487 1487 1486 1486 1485 1485 1484 1483 1483 1482 1481 1480 1479 1478 1477
1489 1489 1490 1491 1491 1491 1491 1491 1491 1492 1492 1492 1492 1492 1491 1492 1491 1491 1491 1490 1490 1489 1489 1488 1487 1487 1486 1485 1485 1484 1484 1483 1483 1482 1482 1481 1480 1479 1478 1478 1477 1476 1474
1487 1487 1488 1488 1488 1488 1488 1488 1487 1488 1488 1488 1488 1488 1488 1488 1488 1488 1487 1487 1487 1486 1486 1485 1485 1484 1483 1483 1482 1481 1481 1480 1480 1480 1479 1478 1477 1476 1476 1475 1474 1473 1471
1485 1485 1486 1486 1486 1486 1485 1485 1484 1484 1484 1484 1484 1484 1484 1485 1484 1484 1484 1484 1483 1483 1482 1482 1481 1481 1480 1480 1479 1478 1478 1477 1477 1476 1476 1475 1474 1473 1472 1471 1470 1469 1468
1482 1482 1483 1483 1483 1483 1482 1482 1481 1481 1481 1480 1480 1481 1481 1481 1481 1481 1481 1480 1479 1479 1479 1479 1478 1478 1477 1477 1476 1475 1475 1474 1473 1472 1472 1471 1470 1469 1468 1467 1466 1466 1465
1479 1480 1480 1480 1480 1480 1479 1479 1478 1478 1477 1477 1477 1477 1477 1477 1476 1476 1476 1476 1476 1476 1475 1475 1475 1474 1474 1473 1472 1472 1471 1470 1469 1468 1467 1467 1466 1465 1464 1463 1462 1461 1460
1477 1477 1477 1477 1477 1477 1476 1476 1475 1475 1474 1474 1474 1474 1473 1473 1473 1472 1472 1472 1472 1471 1471 1471 1471 1470 1470 1469 1468 1468 1466 1465 1464 1463 1463 1462 1461 1460 1460 1459 1458 1457 1456
1474 1474 1474 1474 1474 1473 1473 1472 1472 1471 1471 1470 1470 1470 1469 1469 1469 1468 1468 1468 1468 1468 1467 1467 1466 1466 1465 1465 1464 1463 1462 1461 1460 1459 1458 1457 1456 1456 1455 1454 1453 1453 1452
1470 1471 1471 1470 1470 1470 1470 1469 1469 1468 1467 1467 1466 1466 1465 1465 1465 1464 1464 1463 1463 1463 1463 1462 1462 1461 1461 1460 1460 1459 1458 1457 1456 1454 1453 1452 1451 1451 1450 1450 1449 1448 1448
1467 1467 1467 1467 1466 1466 1466 1466 1465 1464 1463 1463 1462 1462 1461 1461 1460 1460 1459 1459 1458 1458 1458 1457 1457 1456 1456 1455 1455 1454 1453 1452 1451 1450 1448 1447 1446 1446 1445 1444 1444 1444 1443
1464 1463 1463 1463 1463 1462 1462 1462 1461 1460 1460 1459 1458 1457 1457 1456 1456 1455 1455 1454 1453 1453 1452 1452 1451 1451 1450 1449 1449 1448 1447 1447 1446 1444 1443 1442 1441 1441 1440 1439 1439 1439 1438
1460 1460 1459 1459 1459 1459 1458 1458 1457 1456 1456 1455 1454 1453 1453 1452 1451 1450 1450 1449 1448 1448 1447 1446 1446 1445 1445 1444 1443 1443 1442 1441 1440 1439 1438 1437 1436 1435 1435 1434 1434 1433 1433